Showing default

PRSS 1, 43530

Orbit data source: Space-Track

PRSS 1, 43530 is a payload satellite owned by SUPARCO (PK) in SSO that was launched on Mon, 09 Jul 2018 UTC via a CHANG ZHENG 2C launch vehicle from the Jiuquan Satellite Launch Center, China (JSC). Payload-class satellites include a variety of spacecraft equipped with specific instruments for various scientific and technological missions. These include communications satellites like Starlink; space stations such as the ISS; scientific satellites like the Hubble; Earth observation satellites from companies like Planet Labs, Umbra, and HawkEye 360; GPS; miniature CubeSats for education and research; and military/defense satellites.

Loading next visibility...
Identifier
43530, 2018-056B
Orbit
SSO
Country
Flag of UnknownUnknown / PAKI
Related business
Manufacturer
DFH
Mission
Operational Civil Imaging
Bus & Motor
CAST-2000, Unknown motor
Mass
~800 kg wet, ~800 kg dry
Launch date (UTC)
2018-07-09 (7 years ago)
Launch vehicle
CHANG ZHENG 2C
Launch site
Jiuquan Satellite Launch Center, China (JSC)
Object type
Payload
Rocket body
Debris
Shape & HBR
Box + 1 Pan, 2.0 m
Radar Cross Section
5.935 m², Large (>1 m²)

Expand to show TLE details & history
Last TLE update: 9 hours ago

TLE from 9 hours ago
0 PRSS 1
1 43530U 18056B   25259.28068924  .00000906  00000-0  12278-3 0  9995
2 43530  97.8174 329.3307 0001488 105.7263 254.4114 14.81272245387875
Epoch: 2025-09-16T06:44Z
TLE epoch observation values (Epoch: 2025-09-16T06:44:11.55Z)
Latitude
-0.00002°
Longitude
-127.19067°
Altitude
628.617 km
Speed
7.544 km/s
True Right ascension
21h 57m 19s
True Declination
0° 00' 00"
Sunlit
Object was in full shadow at epoch
Visualization orbit readout
Latitude
Unknown
Longitude
Unknown
Altitude
Unknown
Speed
Unknown
Apparent Right ascension
Unknown
Apparent Declination
Unknown
Sunlit
N/A
Visualization observer readout
Local Sidereal Time
08:00:05
Azimuth
Unknown
Elevation
Unknown
Doppler factor
Unknown
Orbital elements
Apogee altitude
623.388 km
Perigee altitude
621.305 km
Semi-major axis
7,000.484 km
Eccentricity
0.00015
Inclination
97.8174°
RAAN
329.3307°
Arg. of periapsis
105.7263°
True anomaly
254.39498°
Mean anomaly
254.4114°
Eccentric anomaly
254.40319°
Mean motion
3.70554 °/min
Orbital period
97.15 mins
BSTAR
0.00012278
Loading maneuver chart data...
Computing Atmospheric mass density...
Loading historical data...
Loading historical data...
Loading historical data...
Loading historical data...
Loading historical data...
Loading historical data...
Loading historical data...

Documentation

Showing up to 5 results
|